Weather History for KBML - December, 2012

Change the Weather History Date:

Friday, December 7, 2012

  Actual Average Record
Temperature  
Mean Temperature 28 °F -  
Max Temperature 37 °F 31 °F 66 °F (1998)
Min Temperature 18 °F 14 °F -9 °F (2014)
Degree Days  
Heating Degree Days 38    
Moisture  
Dew Point 20 °F    
Average Humidity 74    
Maximum Humidity 85    
Minimum Humidity 46    
Precipitation  
Precipitation 0.00 in - - ()
Sea Level Pressure  
Sea Level Pressure 30.12 in    
Wind  
Wind Speed 0 mph (NW)    
Max Wind Speed 4 mph    
Max Gust Speed -    
Visibility 10 miles    
Events      
Averages and records for this station are not official NWS values.
T = Trace of Precipitation, MM = Missing Value Source: NWS Daily Summary

Daily Weather History Graph

Daily Weather History Graph

Search for Another Location

Airport or City:

Trip Planner

Search our weather history database for the weather conditions in past years. The results will help you decide how hot, cold, wet, or windy it might be!

Date:

Astronomy

Dec. 07, 2012 Rise Set
Actual Time 7:08 AM EST 4:04 PM EST
Civil Twilight 6:34 AM EST 4:37 PM EST
Nautical Twilight 5:58 AM EST 5:14 PM EST
Astronomical Twilight 5:22 AM EST 5:49 PM EST
Moon 12:10 AM EST (12/7) 12:12 PM EST (12/7)
Length of Visible Light 10h 02m
Length of Day
8h 56m
Last Quarter, 39% of the Moon is Illuminated
Dec 7
Last Quarter
Dec 13
New
Dec 20
First Quarter
Dec 28
Full
Jan 4
Last Quarter

Hourly Weather History & Observations

Time (EST) Temp. Windchill Dew Point Humidity Pressure Visibility Wind Dir Wind Speed Gust Speed Precip Events Conditions
12:52 AM 19.0 °F - 15.1 °F 85% 30.25 in 10.0 mi Calm Calm - N/A   Clear
1:52 AM 19.9 °F - 16.0 °F 85% 30.25 in 10.0 mi Calm Calm - N/A   Clear
2:52 AM 19.9 °F - 16.0 °F 85% 30.24 in 10.0 mi Calm Calm - N/A   Clear
3:52 AM 18.0 °F - 14.0 °F 84% 30.22 in 10.0 mi Calm Calm - N/A   Clear
4:52 AM 19.9 °F - 16.0 °F 85% 30.21 in 10.0 mi Calm Calm - N/A   Clear
5:52 AM 21.0 °F - 17.1 °F 85% 30.20 in 10.0 mi Calm Calm - N/A   Clear
6:52 AM 21.0 °F - 17.1 °F 85% 30.20 in 10.0 mi Calm Calm - N/A   Clear
7:52 AM 21.9 °F - 18.0 °F 85% 30.18 in 10.0 mi Calm Calm - N/A   Clear
8:52 AM 24.1 °F - 19.0 °F 81% 30.17 in 10.0 mi Calm Calm - N/A   Clear
9:52 AM 26.1 °F - 19.9 °F 78% 30.16 in 10.0 mi Calm Calm - N/A   Clear
10:52 AM 28.9 °F 25.2 °F 21.0 °F 72% 30.13 in 10.0 mi NW 3.5 mph - N/A   Clear
11:52 AM 33.1 °F - 19.9 °F 59% 30.09 in 10.0 mi Calm Calm - N/A   Clear
12:52 PM 35.1 °F - 19.0 °F 52% 30.07 in 10.0 mi Calm Calm - N/A   Clear
1:52 PM 36.0 °F - 18.0 °F 48% 30.05 in 10.0 mi Calm Calm - N/A   Overcast
2:52 PM 37.0 °F - 18.0 °F 46% 30.04 in 10.0 mi Calm Calm - N/A   Mostly Cloudy
3:52 PM 30.9 °F - 21.9 °F 69% 30.06 in 10.0 mi Calm Calm - N/A   Clear
4:52 PM 32.0 °F - 23.0 °F 69% 30.06 in 10.0 mi Calm Calm - N/A   Mostly Cloudy
5:52 PM 32.0 °F - 24.1 °F 73% 30.06 in 10.0 mi Calm Calm - N/A   Overcast
6:52 PM 32.0 °F - 24.1 °F 73% 30.06 in 10.0 mi Calm Calm - N/A   Overcast
7:52 PM 32.0 °F - 25.0 °F 75% 30.05 in 10.0 mi Calm Calm - N/A   Partly Cloudy
8:52 PM 32.0 °F - 25.0 °F 75% 30.05 in 10.0 mi Calm Calm - N/A   Overcast
9:52 PM 32.0 °F - 25.0 °F 75% 30.05 in 10.0 mi Calm Calm - N/A   Overcast
10:52 PM 30.9 °F - 25.0 °F 79% 30.05 in 10.0 mi Calm Calm - N/A   Overcast
11:52 PM 32.0 °F - 25.0 °F 75% 30.04 in 10.0 mi Calm Calm - N/A   Overcast